Content
SEND FEEDBACK

Daily
Averages
Monthly
Summary
Bosnia and Herzegovina

MOSTAR, BOSNIA AND HERZEGOVINA


Home > Europe > Bosnia and Herzegovina
Elevation: 354 feet     Latitude: 43 21N     Longitude: 017 48E

WEATHER
 
SELECT A DAY
Number of Records: 176,004;   Date Range: 2/20/97 - 10/21/14
 
SHARE

PRINT THIS DATA

[ ← Previous Day ]
WEATHER ALMANAC - JULY 30, 2014
[ Next Day → ]
[ °C ]   °F
Weather ElementAverageHighLow
Temperature71.8 °F82.4 °F (12:00 pm)64.4 °F (11:00 pm)
Dewpoint65 °F68 °F (9:30 am)60.8 °F (1:00 pm)
Humidity80.5 %100 % (8:00 pm)48 % (1:00 pm)
Barometer29.75 in29.83 in (1:00 am)29.68 in (3:00 pm)
Wind Speed5.4 mph18.4 mph (1:00 pm)
Weather ElementAverage
Visibility6.1 mi
Wind DirectionESE (126.8 °)

Weather ElementTotal
Precipitation---
Cooling Degree Days8.4 (Base 65)
Growing Degree Days23.4 (Base 50)
Averaged from 28 records on July 30, 2014
WEATHER CONDITIONS BREAKOUT
WIND DIRECTION BREAKOUT
WEATHER BY HOUR - JULY 30, 2014
[ °C ]   °F
Local TimeTemperatureDewpointHumidityBarometerVisibilityWind DirectionWind SpeedGust SpeedPrecipitationEventsConditions
1:00 AM69.8 °F66.2 °F88 %29.83 inVariable2.3 mphClear
2:00 AM68.0 °F66.2 °F94 %29.80 inNorth (350°)3.5 mphClear
3:00 AM69.8 °F64.4 °F83 %29.80 in6.2 miVariable2.3 mphPartly Cloudy
4:00 AM68.0 °F64.4 °F88 %29.77 in6.2 miVariable1.2 mphPartly Cloudy
5:00 AM68.0 °F64.4 °F88 %29.77 in6.2 miVariable2.3 mphPartly Cloudy
6:00 AM68.0 °F64.4 °F88 %29.74 in6.2 miVariable2.3 mphPartly Cloudy
7:00 AM68.0 °F64.4 °F88 %29.74 inVariable2.3 mphClear
8:00 AM69.8 °F66.2 °F88 %29.71 in6.2 miNNW (340°)5.8 mphPartly Cloudy
8:30 AM71.6 °F66.2 °F83 %29.71 in6.2 miSSE (150°)3.5 mphPartly Cloudy
9:00 AM75.2 °F66.2 °F73 %29.71 in6.2 miSSW (200°)3.5 mphPartly Cloudy
9:30 AM73.4 °F68.0 °F83 %29.74 in6.2 miEast (90°)5.8 mphMostly Cloudy
10:00 AM75.2 °F68.0 °F78 %29.74 in6.2 miSW (230°)4.6 mphMostly Cloudy
10:30 AM77.0 °F68.0 °F74 %29.74 in6.2 miNNE (20°)5.8 mphMostly Cloudy
11:00 AM77.0 °F66.2 °F69 %29.74 in6.2 miVariable4.6 mphRain-ThunderstormLight Rain
11:30 AM78.8 °F62.6 °F57 %29.74 in6.2 miSSE (160°)8.1 mphMostly Cloudy
12:00 PM82.4 °F64.4 °F54 %29.74 in6.2 miSSE (160°)12.7 mphMostly Cloudy
1:00 PM82.4 °F60.8 °F48 %29.74 in6.2 miSSE (150°)18.4 mphMostly Cloudy
2:00 PM78.8 °F64.4 °F61 %29.74 in6.2 miSouth (180°)9.2 mphRain-ThunderstormLight Rain
3:00 PM77.0 °F66.2 °F69 %29.68 in6.2 miSW (220°)9.2 mphMostly Cloudy
4:00 PM77.0 °F62.6 °F61 %29.71 in6.2 miSSW (210°)8.1 mphRainLight Rain
5:00 PM69.8 °F66.2 °F88 %29.77 in2.5 miVariable5.8 mphRain-ThunderstormHeavy Rain Showers
6:00 PM68.0 °F64.4 °F88 %29.74 in6.2 miVariable3.5 mphRain-ThunderstormLight Rain
7:00 PM68.0 °F64.4 °F88 %29.71 in6.2 miNNW (340°)6.9 mphMostly Cloudy
8:00 PM66.2 °F66.2 °F100 %29.74 in6.2 miSSW (200°)4.6 mphScattered Clouds
9:00 PM66.2 °F64.4 °F94 %29.74 in6.2 miVariable3.5 mphScattered Clouds
9:30 PM66.2 °F64.4 °F94 %29.74 in6.2 miNorth (350°)4.6 mphThunderstormThunderstorm
10:00 PM66.2 °F64.4 °F94 %29.77 in6.2 miSSW (200°)3.5 mphThunderstormThunderstorm
11:00 PM64.4 °F62.6 °F94 %29.77 in6.2 miVariable2.3 mphThunderstormThunderstorm
Hourly data recorded from LQMO, located miles away from Mostar, Bosnia and Herzegovina







STORIES FROM OUR PARTNERS